Regional Weather Roundup
Issued by NWS Charleston, WV

Home | Current Version | Previous Version | Graphics & Text | Print | Product List | Glossary On
Versions: 1 2 3 4 5 6 7 8 9 10 11 12 13 14 15 16 17 18 19 20 21 22 23 24 25 26 27
000
ASUS41 KRLX 180010
RWRRLX
West Virginia Regional Weather Roundup
National Weather Service Charleston WV
800 PM EDT THU APR 17 2014

Note: "fair" indicates few or no clouds below 12,000 feet with no
significant weather and/or obstructions to visibility.

WVZ003-180100-
Northern Panhandle of West Virginia

CITY           SKY/WX    TMP DP  RH WIND       PRES   REMARKS
WHEELING       CLEAR     61  23  23 SE3       30.30F
$$

WVZ009-180100-
Northwest West Virginia

CITY           SKY/WX    TMP DP  RH WIND       PRES   REMARKS
PARKERSBURG    CLEAR     66  20  17 CALM      30.31F
$$

WVZ006-180100-
Western West Virginia

CITY           SKY/WX    TMP DP  RH WIND       PRES   REMARKS
HUNTINGTON     CLEAR     66  17  15 CALM      30.27S
$$

WVZ015-180100-
West Central West Virginia

CITY           SKY/WX    TMP DP  RH WIND       PRES   REMARKS
CHARLESTON     PTCLDY    65  23  20 SE10      30.28S
$$

WVZ031-180100-
North Central West Virginia

CITY           SKY/WX    TMP DP  RH WIND       PRES   REMARKS
CLARKSBURG     CLEAR     60  26  27 E8        30.31S
MORGANTOWN     CLEAR     58  24  27 E14G23    30.34F
$$

WVZ035-042-045-180100-
South Central West Virginia

CITY           SKY/WX    TMP DP  RH WIND       PRES   REMARKS
BECKLEY        CLEAR     52  22  30 SE9G16    30.36S
BLUEFIELD      CLEAR     54  23  30 VRB7      30.37S
LEWISBURG      CLEAR     49  16  26 E6        30.41R
$$

WVZ047-180100-
Northern Mountains of West Virginia

CITY           SKY/WX    TMP DP  RH WIND       PRES   REMARKS
ELKINS         CLEAR     55  23  28 SE13G18   30.36R
$$

WVZ052-180100-
Eastern Panhandle of West Virginia

CITY           SKY/WX    TMP DP  RH WIND       PRES   REMARKS
MARTINSBURG    CLEAR     51  28  41 SE7       30.50S
PETERSBURG     CLEAR     57  32  38 SE6       30.44S
$$



USA.gov is the U.S. government's official web portal to all federal, state and local government web resources and services.